SCP
0 0 0 0 0 0 0 0 0 0 0 0 0 0 0 0 0 0 0 0 0 0
0 0 0 0 0 0 0 0 0 0 0 0 0 0 0 0 0 0 0 0 0 0
0 0 0 0 0 0 0 0 0 0 0 0 0 0 0 0 0 0 0 0 0 0
0 0 0 0 0 0 0 0 0 0 0 0 0 0 0 0 0 0 0 0 0 0
0 0 0 0 0 0 0 0 0 0 0 0 0 0 0 0 0 0 0 0 0 0
0 0 0 0 0 0 0 0 0 0 0 0 0 0 0 0 0 0 0 0 0 0
0 0 0 0 0 0 0 0 0 0 0 0 0 0 0 0 0 0 0 0 0 0
0 0 0 0 0 0 0 0 0 0 0 0 0 0 0 0 0 0 0 0 0 0
0 0 0 0 0 0 0 0 0 0 0 0 0 0 0 0 0 0 0 0 0 0
0 0 0 0 0 0 0 0 0 0 0 0 0 0 0 0 0 0 0 0 0 0
0 0 0 0 0 0 0 0 0 0 0 0 0 0 0 0 0 0 0 0 0 0
0 0 0 0 0 0 0 0 0 0 0 0 0 0 0 0 0 0 0 0 0 0
0 0 0 0 0 0 0 0 0 0 0 0 0 0 0 0 0 0 0 0 0 0
0 0 0 0 0 0 0 0 0 0 0 0 0 0 0 0 0 0 0 0 0 0
Wind_Speed_500mb
20 19 18 18 18 20 22 23 23 24 24 25 27 27 28 29 27 25 24 23 25 28
27 24 23 23 24 26 27 28 29 29 28 29 30 31 31 31 30 27 25 22 20 20
32 29 26 25 24 26 28 30 32 34 33 33 32 30 28 25 21 18 15 13 10 7
35 31 31 30 29 30 31 32 34 34 33 31 29 26 23 18 15 12 10 9 6 2
41 37 34 32 32 32 32 34 34 34 32 29 25 20 15 12 11 10 9 5 2 4
43 40 40 38 36 36 35 33 33 32 29 25 20 16 13 11 9 5 3 6 10 13
50 47 45 43 39 38 35 33 31 29 26 23 20 17 14 11 8 7 8 12 17 20
56 52 50 47 42 38 35 32 30 28 25 23 21 19 16 13 11 11 13 15 19 24
58 55 52 48 43 38 35 33 30 29 27 25 24 21 18 16 15 15 16 16 18 22
60 57 52 47 43 39 36 34 32 30 28 25 23 23 19 17 17 17 19 21 23 26
58 54 51 47 43 40 38 36 33 31 28 25 24 24 21 18 18 17 19 22 25 27
55 52 49 46 44 41 39 36 34 31 28 24 23 22 25 17 20 19 19 20 23 26
52 51 50 47 44 41 38 35 32 29 25 22 23 21 26 21 22 23 21 21 21 24
50 46 43 41 40 38 34 32 30 28 25 23 22 22 25 26 23 25 27 26 25 31
Wind_Direction_500mb
228 233 238 251 266 272 270 271 272 274 276 278 280 280 280 280 281 282 281 280 277 276
236 241 254 266 268 268 272 275 280 285 288 288 286 281 277 275 274 274 274 274 275 276
238 248 253 257 260 264 272 279 284 286 287 286 284 283 281 279 275 268 260 254 250 250
242 242 246 251 258 266 273 280 285 287 288 286 285 283 280 270 252 230 202 183 180 178
239 242 248 253 259 266 272 277 281 283 282 281 279 274 263 239 207 187 178 179 230 318
243 246 250 252 255 261 265 269 272 275 275 272 265 250 230 214 210 216 270 318 324 329
244 245 248 250 252 255 258 259 261 263 262 258 249 237 229 229 244 274 299 314 318 322
246 246 247 247 247 247 248 248 249 250 246 243 237 233 235 247 267 289 303 312 316 318
244 244 243 242 241 240 239 236 235 237 238 235 238 240 250 261 275 285 292 296 302 307
241 241 240 239 237 235 233 232 230 230 234 237 242 251 251 262 275 288 298 305 309 311
240 239 238 237 235 233 230 229 228 228 231 238 246 259 264 271 281 289 297 304 306 305
241 240 238 234 231 228 226 226 227 227 229 234 245 260 274 279 286 292 295 299 300 302
241 240 237 234 230 226 223 223 224 226 227 236 248 260 280 290 293 295 297 298 300 302
234 233 231 228 225 224 225 225 228 232 237 238 246 263 276 290 298 304 310 310 311 307
Wind_Speed_850mb
20 19 18 18 18 20 22 23 23 24 24 25 27 27 28 29 27 25 24 23 25 28
27 24 23 23 24 26 27 28 29 29 28 29 30 31 31 31 30 27 25 22 20 20
32 29 26 25 24 26 28 30 32 34 33 33 32 30 28 25 21 18 15 13 10 7
35 31 31 30 29 30 31 32 34 34 33 31 29 26 23 18 15 12 10 9 6 2
41 37 34 32 32 32 32 34 34 34 32 29 25 20 15 12 11 10 9 5 2 4
43 40 40 38 36 36 35 33 33 32 29 25 20 16 13 11 9 5 3 6 10 13
50 47 45 43 39 38 35 33 31 29 26 23 20 17 14 11 8 7 8 12 17 20
56 52 50 47 42 38 35 32 30 28 25 23 21 19 16 13 11 11 13 15 19 24
58 55 52 48 43 38 35 33 30 29 27 25 24 21 18 16 15 15 16 16 18 22
60 57 52 47 43 39 36 34 32 30 28 25 23 23 19 17 17 17 19 21 23 26
58 54 51 47 43 40 38 36 33 31 28 25 24 24 21 18 18 17 19 22 25 27
55 52 49 46 44 41 39 36 34 31 28 24 23 22 25 17 20 19 19 20 23 26
52 51 50 47 44 41 38 35 32 29 25 22 23 21 26 21 22 23 21 21 21 24
50 46 43 41 40 38 34 32 30 28 25 23 22 22 25 26 23 25 27 26 25 31
Wind_Direction_850mb
228 233 238 251 266 272 270 271 272 274 276 278 280 280 280 280 281 282 281 280 277 276
236 241 254 266 268 268 272 275 280 285 288 288 286 281 277 275 274 274 274 274 275 276
238 248 253 257 260 264 272 279 284 286 287 286 284 283 281 279 275 268 260 254 250 250
242 242 246 251 258 266 273 280 285 287 288 286 285 283 280 270 252 230 202 183 180 178
239 242 248 253 259 266 272 277 281 283 282 281 279 274 263 239 207 187 178 179 230 318
243 246 250 252 255 261 265 269 272 275 275 272 265 250 230 214 210 216 270 318 324 329
244 245 248 250 252 255 258 259 261 263 262 258 249 237 229 229 244 274 299 314 318 322
246 246 247 247 247 247 248 248 249 250 246 243 237 233 235 247 267 289 303 312 316 318
244 244 243 242 241 240 239 236 235 237 238 235 238 240 250 261 275 285 292 296 302 307
241 241 240 239 237 235 233 232 230 230 234 237 242 251 251 262 275 288 298 305 309 311
240 239 238 237 235 233 230 229 228 228 231 238 246 259 264 271 281 289 297 304 306 305
241 240 238 234 231 228 226 226 227 227 229 234 245 260 274 279 286 292 295 299 300 302
241 240 237 234 230 226 223 223 224 226 227 236 248 260 280 290 293 295 297 298 300 302
234 233 231 228 225 224 225 225 228 232 237 238 246 263 276 290 298 304 310 310 311 307